This demonstration page uses our WeatherBlox Daily Observations layout. Learn more.

Left ArrowRight Arrow

Hourly Observations for September 7, 2018

Temp ( °F °C ) Dew Point ( °F °C ) Humidity (%) Winds ( mph kmh ) Pressure ( in mb ) Visibility ( mi km ) Precip ( " mm )
12:05 am 00:05 Cloudy with Rain 74 23.3 72 22.2 94 94 ENE 10 17 30.06 1018 5 8 0.00 0.03
12:15 am 00:15 Cloudy with Light Rain 74 23.3 72 22.2 94 94 ENE 8 13 30.06 1018 3 4 0.08 2.03
12:17 am 00:17 Cloudy with Light Rain 74 23.3 72 22.2 94 94 ENE 8 13 30.06 1018 3 5 0.09 2.29
12:44 am 00:44 Cloudy with Nearby Thunderstorms 74 23.3 72 22.2 94 94 E 6 9 30.06 1018 10 16 0.09 2.29
12:52 am 00:52 Cloudy with Nearby Thunderstorms 74 23.3 72 22.2 94 94 E 6 9 30.06 1018 10 16 0.09 2.29
12:59 am 00:59 Cloudy with Nearby Thunderstorms 74 23.3 72 22.2 94 94 E 5 7 30.06 1018 9 14 0.00 0.03
1:02 am 01:02 Cloudy with Light Rain 74 23.3 72 22.2 94 94 E 3 6 30.06 1018 9 14 0.00 0.03
1:12 am 01:12 Cloudy with Light Rain 74 23.3 72 22.2 94 94 NE 3 6 30.06 1018 10 16 0.00 0.03
1:26 am 01:26 Cloudy with Light Rain 74 23.3 72 22.2 94 94 NE 5 7 30.06 1018 7 11 0.00 0.03
1:44 am 01:44 Cloudy with Light Rain 74 23.3 72 22.2 94 94 NNE 6 9 30.06 1018 7 11 0.03 0.76
1:52 am 01:52 Cloudy with Light Rain 74 23.3 72 22.2 94 94 NE 6 9 30.04 1017 10 16 0.03 0.76
2:52 am 02:52 Mostly Cloudy with Light Rain 74 23.3 72 22.2 94 94 E 6 9 30.04 1017 10 16 0.00 0.03
3:52 am 03:52 Partly Cloudy 73 22.8 71 21.7 94 94 ENE 5 7 30.02 1017 10 16 0.00 0.03
4:03 am 04:03 Mostly Cloudy 74 23.3 71 21.7 91 91 ENE 5 7 30.00 1016 10 16 0.00 0.00
4:52 am 04:52 Mostly Cloudy 73 22.8 70 21.1 90 90 E 6 9 30.01 1016 10 16 0.00 0.00
5:03 am 05:03 Mostly Clear 73 22.8 70 21.1 90 90 E 6 9 30.03 1017 10 16 0.00 0.00
5:32 am 05:32 Mostly Cloudy 73 22.8 70 21.1 90 90 ENE 5 7 30.03 1017 10 16 0.00 0.00
5:41 am 05:41 Cloudy 73 22.8 70 21.1 90 90 E 6 9 30.03 1017 10 16 0.00 0.00
5:52 am 05:52 Cloudy 73 22.8 70 21.1 90 90 ENE 6 9 30.02 1017 10 16 0.00 0.00
6:43 am 06:43 Cloudy 73 22.8 70 21.1 90 90 ENE 7 11 30.03 1017 10 16 0.00 0.00
6:52 am 06:52 Cloudy 73 22.8 70 21.1 90 90 ENE 6 9 30.02 1017 10 16 0.00 0.00
7:52 am 07:52 Cloudy 73 22.8 70 21.1 90 90 E 7 11 30.03 1017 10 16 0.00 0.00
8:01 am 08:01 Cloudy 73 22.8 70 21.1 90 90 E 8 13 30.03 1017 10 16 0.00 0.00
8:52 am 08:52 Cloudy 74 23.3 71 21.7 91 91 NE 6 9 30.03 1017 10 16 0.00 0.00
9:52 am 09:52 Cloudy 75 23.9 70 21.1 84 84 ENE 9 15 30.03 1017 10 16 0.00 0.00
10:06 am 10:06 Cloudy 75 23.9 71 21.7 88 88 ENE 8 13 30.00 1016 10 16 0.00 0.00
10:38 am 10:38 Cloudy 76 24.4 70 21.1 82 82 NE 8 13 30.03 1017 10 16 0.00 0.00
10:52 am 10:52 Cloudy 76 24.4 70 21.1 82 82 NE 8 13 30.04 1017 10 16 0.00 0.00
11:52 am 11:52 Cloudy 76 24.4 71 21.7 85 85 ENE 6 9 30.02 1017 10 16 0.00 0.00
12:07 pm 12:07 Cloudy 77 25 71 21.7 82 82 ENE 8 13 30.00 1016 10 16 0.00 0.00
12:52 pm 12:52 Cloudy 80 26.7 71 21.7 74 74 ENE 6 9 29.99 1016 10 16 0.00 0.00
1:52 pm 13:52 Cloudy with Light Rain 80 26.7 70 21.1 71 71 E 7 11 29.97 1015 10 16 0.00 0.03
2:26 pm 14:26 Cloudy with Rain 77 25 71 21.7 82 82 NNE 5 7 29.94 1014 4 6 0.01 0.25
2:52 pm 14:52 Cloudy 80 26.7 71 21.7 74 74 NNE 3 6 29.94 1014 10 16 0.02 0.51
3:32 pm 15:32 Cloudy with Light Rain 81 27.2 72 22.2 74 74 NNW 6 9 29.91 1013 10 16 0.00 0.03
3:52 pm 15:52 Cloudy 80 26.7 71 21.7 74 74 NNE 8 13 29.92 1013 10 16 0.00 0.03
4:27 pm 16:27 Cloudy with Light Rain 78 25.6 72 22.2 82 82 N 12 19 29.91 1013 10 16 0.00 0.03
4:52 pm 16:52 Cloudy with Rain 75 23.9 71 21.7 88 88 E 6 9 29.92 1013 3 4 0.03 0.76
5:11 pm 17:11 Cloudy with Heavy Rain 73 22.8 70 21.1 90 90 N 8 13 29.91 1013 2 2 0.13 3.30
5:21 pm 17:21 Cloudy with Nearby Thunderstorms 74 23.3 71 21.7 91 91 N 6 9 29.91 1013 2 2 0.21 5.33
5:37 pm 17:37 Cloudy with Rain 74 23.3 71 21.7 91 91 S 6 9 29.91 1013 2 3 0.31 7.87
5:49 pm 17:49 Cloudy with Heavy Rain 73 23 72 22 94 94 E 8 13 29.91 1013 1 2 0.43 10.92
5:52 pm 17:52 Cloudy with Heavy Rain 73 22.8 71 21.7 94 94 Calm 29.92 1013 1 1 0.53 13.46
6:02 pm 18:02 Cloudy with Heavy Rain 73 22.8 71 21.7 94 94 VRB 6 9 29.88 1012 0 0 0.48 12.19
6:05 pm 18:05 Cloudy with Heavy Rain 73 22.8 71 21.7 94 94 N 7 11 29.91 1013 1 1 0.52 13.21
6:11 pm 18:11 Cloudy with Rain 73 22.8 71 21.7 94 94 N 8 13 29.91 1013 2 3 0.54 13.72
6:14 pm 18:14 Cloudy with Rain 73 22.8 71 21.7 94 94 N 9 15 29.91 1013 3 5 0.55 13.97
6:17 pm 18:17 Cloudy with Rain 73 22.8 71 21.7 94 94 NNE 8 13 29.91 1013 3 4 0.56 14.22
6:41 pm 18:41 Cloudy with Heavy Rain 73 22.8 71 21.7 94 94 NNE 9 15 29.91 1013 1 1 0.79 20.07
6:52 pm 18:52 Cloudy with Heavy Rain 73 22.8 71 21.7 94 94 NNE 14 22 29.93 1013 1 2 0.97 24.64
6:59 pm 18:59 Cloudy with Heavy Rain 73 22.8 71 21.7 94 94 NNE 13 20 29.91 1013 1 2 0.10 2.54
7:22 pm 19:22 Cloudy with Heavy Rain 72 22.2 70 21.1 94 94 N 15 24 29.94 1014 2 3 0.40 10.16
7:39 pm 19:39 Cloudy with Heavy Rain 71 21.7 69 20.6 94 94 N 16 26 29.94 1014 3 5 0.54 13.72
7:47 pm 19:47 Cloudy with Heavy Rain 72 22 70 21 94 94 N 17 28 29.94 1014 3 5 0.58 14.73
7:52 pm 19:52 Cloudy with Heavy Rain 71 21.7 69 20.6 94 94 N 16 26 29.93 1014 3 5 0.62 15.75
8:00 pm 20:00 Cloudy with Nearby Thunderstorms 71 21.7 69 20.6 94 94 N 15 24 29.94 1014 3 5 0.06 1.52
8:09 pm 20:09 Cloudy with Rain 71 21.7 69 20.6 94 94 N 9 15 29.94 1014 3 5 0.10 2.54
8:23 pm 20:23 Cloudy with Strong Thunderstorms 70 21.1 69 20.6 97 97 N 8 13 29.94 1014 3 5 0.19 4.83
8:38 pm 20:38 Cloudy with Light Rain 70 21.1 68 20 93 93 NNE 12 19 29.94 1014 7 11 0.24 6.10
8:52 pm 20:52 Cloudy with Light Rain 70 21.1 68 20 93 93 NNE 13 20 29.94 1014 9 14 0.26 6.60
9:52 pm 21:52 Mostly Cloudy with Light Rain 69 20.6 67 19.4 93 93 NNE 13 20 29.93 1014 10 16 0.08 2.03
10:52 pm 22:52 Cloudy 70 21.1 68 20 93 93 NNE 10 17 29.93 1014 10 16 0.01 0.25
11:52 pm 23:52 Cloudy 70 21.1 68 20 93 93 NNE 10 17 29.93 1014 10 16 0.00 0.00

Powered by AerisWeather